Location: Pebble Beach Sunset Acres
(33.0837°N, 96.4508°W)
Time: 17:15:22
(UTC+00:00)

DELTA 2 R/B (1) - Pass Details

Date: 28 June 2022
Orbit: 790 x 802 km, 39.6° (Epoch: 18 August)

Event Time Altitude Azimuth Distance (km) Brightness Sun altitude
Rises 03:05:32 0° 292° (WNW) 3,296 8.2 -15.7°
Reaches altitude 10° 03:08:04 10° 297° (WNW) 2,367 7.2 -16.0°
Maximum altitude 03:13:34 55° 15° (NNE) 952 4.1 -16.9°
Enters shadow 03:17:39 18° 88° (E) 1,878 5.1 -17.5°
